QFA1844 YBBN-YBRK

Flight info

Callsign QFA1844
Flight time 0h 59m
Altitude 32000
Route BN Q67 LOAFA Q64 OLDIB/N0387F200 V308 RK
Aircraft E190/M-SDE3GILORVW/S

Departure

Time 2026-05-06 23:57
Airport Brisbane International Airport (YBBN)

Arrival

Time 2026-05-07 00:56
Airport Rockhampton Airport (YBRK)
Time Latitude Longitude Altitude Speed Heading
2026-05-06 23:33 -27.38333 153.12288 21 ft 0 kts 285°
2026-05-06 23:47 -27.38333 153.12286 21 ft 0 kts 285°
2026-05-06 23:47 -27.38337 153.12302 21 ft 2 kts 285°
2026-05-06 23:47 -27.38340 153.12318 21 ft 2 kts 285°
2026-05-06 23:48 -27.38344 153.12334 21 ft 2 kts 285°
2026-05-06 23:48 -27.38348 153.12350 21 ft 2 kts 285°
2026-05-06 23:48 -27.38352 153.12367 21 ft 2 kts 285°
2026-05-06 23:48 -27.38356 153.12383 21 ft 2 kts 285°
2026-05-06 23:49 -27.38360 153.12399 21 ft 2 kts 293°
2026-05-06 23:49 -27.38370 153.12411 21 ft 2 kts 336°
2026-05-06 23:49 -27.38378 153.12413 21 ft 0 kts 350°
2026-05-06 23:51 -27.38377 153.12413 21 ft 0 kts 350°
2026-05-06 23:51 -27.38355 153.12410 21 ft 6 kts 350°
2026-05-06 23:51 -27.38287 153.12419 21 ft 13 kts 47°
2026-05-06 23:51 -27.38306 153.12535 21 ft 18 kts 105°
2026-05-06 23:52 -27.38221 153.12633 21 ft 21 kts 26°
2026-05-06 23:52 -27.38080 153.12712 21 ft 24 kts 26°
2026-05-06 23:52 -27.37929 153.12726 21 ft 22 kts 298°
2026-05-06 23:52 -27.37857 153.12563 21 ft 24 kts 295°
2026-05-06 23:53 -27.37780 153.12389 21 ft 25 kts 296°
2026-05-06 23:53 -27.37695 153.12207 21 ft 26 kts 298°
2026-05-06 23:53 -27.37627 153.12058 21 ft 6 kts 310°
2026-05-06 23:53 -27.37624 153.12079 21 ft 6 kts 121°
2026-05-06 23:54 -27.37654 153.12131 21 ft 9 kts 123°
2026-05-06 23:54 -27.37691 153.12205 21 ft 12 kts 112°
2026-05-06 23:54 -27.37733 153.12308 21 ft 16 kts 118°
2026-05-06 23:54 -27.37794 153.12431 21 ft 21 kts 118°
2026-05-06 23:55 -27.37870 153.12590 21 ft 25 kts 117°
2026-05-06 23:55 -27.37964 153.12781 21 ft 29 kts 126°
2026-05-06 23:55 -27.38055 153.12955 21 ft 17 kts 117°
2026-05-06 23:55 -27.38101 153.13052 21 ft 6 kts 133°
2026-05-06 23:56 -27.38140 153.13045 21 ft 7 kts 207°
2026-05-06 23:56 -27.38391 153.12901 21 ft 78 kts 207°
2026-05-06 23:56 -27.39091 153.12500 23 ft 141 kts 208°
2026-05-06 23:56 -27.40055 153.11969 387 ft 161 kts 207°
2026-05-06 23:57 -27.41046 153.11385 1075 ft 163 kts 213°
2026-05-06 23:57 -27.42001 153.10837 1817 ft 153 kts 207°
2026-05-06 23:57 -27.42934 153.10312 2562 ft 152 kts 222°
2026-05-06 23:57 -27.43680 153.09334 2965 ft 178 kts 233°
2026-05-06 23:58 -27.44596 153.08214 3354 ft 209 kts 226°
2026-05-06 23:58 -27.45736 153.07050 3846 ft 237 kts 222°
2026-05-06 23:58 -27.46965 153.05679 4390 ft 259 kts 242°
2026-05-06 23:58 -27.47385 153.03744 5320 ft 262 kts 269°
2026-05-06 23:59 -27.47480 153.01706 6433 ft 261 kts 267°
2026-05-06 23:59 -27.47610 152.99675 7542 ft 259 kts 266°
2026-05-06 23:59 -27.47753 152.97710 8552 ft 258 kts 266°
2026-05-06 23:59 -27.47841 152.95699 9442 ft 260 kts 279°
2026-05-07 00:00 -27.47092 152.93890 10250 ft 263 kts 313°
2026-05-07 00:00 -27.45566 152.92680 11102 ft 268 kts 328°
2026-05-07 00:00 -27.43961 152.91620 11987 ft 269 kts 331°
2026-05-07 00:00 -27.42168 152.91187 12803 ft 277 kts
2026-05-07 00:01 -27.40297 152.91960 13360 ft 301 kts 31°
2026-05-07 00:01 -27.38870 152.93820 13673 ft 332 kts 55°
2026-05-07 00:01 -27.37632 152.96075 14186 ft 344 kts 52°
2026-05-07 00:01 -27.36293 152.98326 14860 ft 349 kts 51°
2026-05-07 00:02 -27.35074 153.00313 15513 ft 352 kts 50°
2026-05-07 00:02 -27.33666 153.02579 16212 ft 356 kts 49°
2026-05-07 00:02 -27.32222 153.04884 16841 ft 362 kts 49°
2026-05-07 00:02 -27.30754 153.07225 17429 ft 369 kts 49°
2026-05-07 00:03 -27.29211 153.09525 18011 ft 368 kts 39°
2026-05-07 00:03 -27.27331 153.11444 18614 ft 370 kts 34°
2026-05-07 00:03 -27.25376 153.13359 19216 ft 375 kts 33°
2026-05-07 00:03 -27.23331 153.15356 19779 ft 382 kts 33°
2026-05-07 00:04 -27.21220 153.17152 20344 ft 373 kts 18°
2026-05-07 00:04 -27.18803 153.18170 20957 ft 367 kts
2026-05-07 00:04 -27.16351 153.19054 21530 ft 372 kts
2026-05-07 00:04 -27.13814 153.19957 22112 ft 376 kts
2026-05-07 00:05 -27.11280 153.20854 22719 ft 379 kts
2026-05-07 00:05 -27.08763 153.21742 23257 ft 383 kts
2026-05-07 00:05 -27.06217 153.22641 23877 ft 385 kts
2026-05-07 00:05 -27.03648 153.23543 24495 ft 385 kts
2026-05-07 00:06 -27.01064 153.23917 25023 ft 370 kts 351°
2026-05-07 00:06 -26.98448 153.23982 25608 ft 371 kts 350°
2026-05-07 00:06 -26.95846 153.24040 26186 ft 373 kts 351°
2026-05-07 00:06 -26.93229 153.24100 26745 ft 375 kts 351°
2026-05-07 00:07 -26.90573 153.24158 27273 ft 377 kts 350°
2026-05-07 00:07 -26.87903 153.24216 27778 ft 380 kts 351°
2026-05-07 00:07 -26.85238 153.24274 28326 ft 381 kts 351°
2026-05-07 00:07 -26.82598 153.24330 28862 ft 383 kts 351°
2026-05-07 00:08 -26.79920 153.24390 29346 ft 385 kts 351°
2026-05-07 00:08 -26.77239 153.24448 29807 ft 387 kts 351°
2026-05-07 00:08 -26.74508 153.24507 30186 ft 391 kts 350°
2026-05-07 00:08 -26.71781 153.24565 30541 ft 395 kts 350°
2026-05-07 00:09 -26.69062 153.24417 30899 ft 385 kts 340°
2026-05-07 00:09 -26.66484 153.23732 31276 ft 376 kts 332°
2026-05-07 00:09 -26.63986 153.22861 31657 ft 379 kts 333°
2026-05-07 00:09 -26.61466 153.21986 32008 ft 380 kts 332°
2026-05-07 00:10 -26.56308 153.20197 32063 ft 397 kts 333°
2026-05-07 00:10 -26.50974 153.18353 32062 ft 407 kts 333°
2026-05-07 00:11 -26.45581 153.16493 32058 ft 404 kts 333°
2026-05-07 00:11 -26.40210 153.14639 32052 ft 404 kts 333°
2026-05-07 00:12 -26.34830 153.12785 32053 ft 405 kts 333°
2026-05-07 00:12 -26.29489 153.10919 32049 ft 399 kts 330°
2026-05-07 00:13 -26.24822 153.07889 32058 ft 383 kts 316°
2026-05-07 00:13 -26.20515 153.04355 32051 ft 387 kts 316°
2026-05-07 00:14 -26.16214 153.00838 32050 ft 385 kts 317°
2026-05-07 00:14 -26.11883 152.97302 32051 ft 383 kts 317°
2026-05-07 00:15 -26.07560 152.93814 32055 ft 385 kts 317°
2026-05-07 00:15 -26.03229 152.90337 32052 ft 384 kts 317°
2026-05-07 00:16 -25.98871 152.86839 32053 ft 384 kts 317°
2026-05-07 00:16 -25.94537 152.83365 32049 ft 384 kts 317°
2026-05-07 00:17 -25.90198 152.79889 32048 ft 385 kts 317°
2026-05-07 00:17 -25.85847 152.76408 32060 ft 385 kts 317°
2026-05-07 00:18 -25.81475 152.72913 32056 ft 386 kts 317°
2026-05-07 00:18 -25.77093 152.69412 32052 ft 387 kts 317°
2026-05-07 00:19 -25.72716 152.65920 32055 ft 385 kts 317°
2026-05-07 00:19 -25.68353 152.62442 32053 ft 388 kts 317°
2026-05-07 00:20 -25.63985 152.58963 32056 ft 388 kts 317°
2026-05-07 00:20 -25.59600 152.55472 32056 ft 388 kts 317°
2026-05-07 00:21 -25.55188 152.51965 32060 ft 386 kts 317°
2026-05-07 00:21 -25.50819 152.48496 32061 ft 387 kts 317°
2026-05-07 00:22 -25.46447 152.45024 32064 ft 387 kts 317°
2026-05-07 00:22 -25.42076 152.41559 32064 ft 388 kts 317°
2026-05-07 00:23 -25.37678 152.38075 32058 ft 386 kts 317°
2026-05-07 00:23 -25.33273 152.34589 32061 ft 389 kts 317°
2026-05-07 00:24 -25.28902 152.31134 32081 ft 389 kts 317°
2026-05-07 00:24 -25.24468 152.27629 32077 ft 390 kts 318°
2026-05-07 00:25 -25.20090 152.24175 32081 ft 389 kts 317°
2026-05-07 00:25 -25.15660 152.20682 32077 ft 389 kts 317°
2026-05-07 00:26 -25.11263 152.17218 32076 ft 390 kts 317°
2026-05-07 00:26 -25.06831 152.13730 32069 ft 391 kts 318°
2026-05-07 00:27 -25.02590 152.10100 32073 ft 384 kts 309°
2026-05-07 00:27 -24.98900 152.05859 32076 ft 382 kts 309°
2026-05-07 00:28 -24.95224 152.01649 32069 ft 382 kts 309°
2026-05-07 00:28 -24.93398 151.99564 32064 ft 371 kts 309°
2026-05-07 00:28 -24.91613 151.97522 32067 ft 363 kts 309°
2026-05-07 00:29 -24.88114 151.93526 32075 ft 365 kts 309°
2026-05-07 00:30 -24.81077 151.85496 32068 ft 367 kts 309°
2026-05-07 00:30 -24.77527 151.81453 32062 ft 365 kts 309°
2026-05-07 00:31 -24.74020 151.77461 32068 ft 365 kts 309°
2026-05-07 00:31 -24.70475 151.73428 32054 ft 365 kts 309°
2026-05-07 00:32 -24.66947 151.69420 32033 ft 365 kts 309°
2026-05-07 00:32 -24.63423 151.65419 32005 ft 368 kts 309°
2026-05-07 00:33 -24.59859 151.61377 31986 ft 365 kts 309°
2026-05-07 00:33 -24.56331 151.57378 31962 ft 365 kts 309°
2026-05-07 00:34 -24.52782 151.53360 31897 ft 368 kts 309°
2026-05-07 00:34 -24.50992 151.51334 31559 ft 370 kts 309°
2026-05-07 00:34 -24.49203 151.49309 31160 ft 372 kts 309°
2026-05-07 00:35 -24.47384 151.47253 30743 ft 374 kts 310°
2026-05-07 00:35 -24.45575 151.45209 30331 ft 374 kts 309°
2026-05-07 00:35 -24.43778 151.43179 29926 ft 371 kts 309°
2026-05-07 00:35 -24.41985 151.41154 29512 ft 372 kts 310°
2026-05-07 00:36 -24.40178 151.39116 29087 ft 371 kts 310°
2026-05-07 00:36 -24.38374 151.37080 28667 ft 370 kts 310°
2026-05-07 00:36 -24.36595 151.35075 28261 ft 367 kts 310°
2026-05-07 00:36 -24.34821 151.33075 27872 ft 365 kts 310°
2026-05-07 00:37 -24.33065 151.31096 27470 ft 364 kts 310°
2026-05-07 00:37 -24.31320 151.29131 27066 ft 363 kts 310°
2026-05-07 00:37 -24.29550 151.27139 26658 ft 361 kts 310°
2026-05-07 00:37 -24.27815 151.25186 26258 ft 359 kts 311°
2026-05-07 00:38 -24.26074 151.23228 25855 ft 359 kts 311°
2026-05-07 00:38 -24.24329 151.21266 25457 ft 357 kts 311°
2026-05-07 00:38 -24.22594 151.19316 25053 ft 356 kts 311°
2026-05-07 00:38 -24.20872 151.17383 24664 ft 353 kts 311°
2026-05-07 00:39 -24.19182 151.15483 24270 ft 352 kts 311°
2026-05-07 00:39 -24.17457 151.13548 23887 ft 350 kts 311°
2026-05-07 00:39 -24.15778 151.11664 23503 ft 350 kts 311°
2026-05-07 00:39 -24.14076 151.09755 23121 ft 349 kts 311°
2026-05-07 00:40 -24.12382 151.07855 22739 ft 347 kts 311°
2026-05-07 00:40 -24.10703 151.05974 22351 ft 344 kts 311°
2026-05-07 00:40 -24.09037 151.04108 21968 ft 343 kts 311°
2026-05-07 00:40 -24.07369 151.02240 21588 ft 340 kts 312°
2026-05-07 00:41 -24.05659 151.00442 21214 ft 341 kts 319°
2026-05-07 00:41 -24.03751 150.98903 20848 ft 341 kts 320°
2026-05-07 00:41 -24.01835 150.97377 20459 ft 339 kts 320°
2026-05-07 00:41 -23.99945 150.95875 20085 ft 339 kts 320°
2026-05-07 00:42 -23.98055 150.94374 19714 ft 337 kts 320°
2026-05-07 00:42 -23.96144 150.92854 19353 ft 336 kts 321°
2026-05-07 00:42 -23.94267 150.91365 18981 ft 333 kts 321°
2026-05-07 00:42 -23.92396 150.89880 18608 ft 332 kts 321°
2026-05-07 00:43 -23.90538 150.88406 18248 ft 330 kts 321°
2026-05-07 00:43 -23.88679 150.86931 17884 ft 329 kts 321°
2026-05-07 00:43 -23.86798 150.85506 17519 ft 330 kts 327°
2026-05-07 00:43 -23.84755 150.84366 17164 ft 329 kts 329°
2026-05-07 00:44 -23.82718 150.83254 16799 ft 328 kts 329°
2026-05-07 00:44 -23.80666 150.82134 16430 ft 327 kts 329°
2026-05-07 00:44 -23.78616 150.81015 16063 ft 326 kts 330°
2026-05-07 00:44 -23.76583 150.79906 15699 ft 324 kts 330°
2026-05-07 00:45 -23.74582 150.78816 15342 ft 322 kts 330°
2026-05-07 00:45 -23.72559 150.77713 14981 ft 322 kts 330°
2026-05-07 00:45 -23.70570 150.76630 14620 ft 321 kts 330°
2026-05-07 00:45 -23.68558 150.75534 14266 ft 321 kts 330°
2026-05-07 00:46 -23.66575 150.74455 13914 ft 320 kts 330°
2026-05-07 00:46 -23.64582 150.73370 13560 ft 320 kts 331°
2026-05-07 00:46 -23.62581 150.72282 13200 ft 318 kts 330°
2026-05-07 00:46 -23.60616 150.71213 12851 ft 319 kts 331°
2026-05-07 00:47 -23.58626 150.70131 12496 ft 318 kts 331°
2026-05-07 00:47 -23.56636 150.69051 12146 ft 318 kts 331°
2026-05-07 00:47 -23.54644 150.67967 11789 ft 317 kts 332°
2026-05-07 00:47 -23.52681 150.66902 11431 ft 312 kts 332°
2026-05-07 00:48 -23.50760 150.65858 11081 ft 306 kts 332°
2026-05-07 00:48 -23.48882 150.64839 10748 ft 300 kts 333°
2026-05-07 00:48 -23.47016 150.63827 10427 ft 295 kts 333°
2026-05-07 00:48 -23.45189 150.62836 10101 ft 289 kts 333°
2026-05-07 00:49 -23.43414 150.61874 9781 ft 284 kts 333°
2026-05-07 00:49 -23.41622 150.60902 9468 ft 284 kts 334°
2026-05-07 00:49 -23.39853 150.59944 9157 ft 285 kts 334°
2026-05-07 00:49 -23.38068 150.58978 8682 ft 287 kts 334°
2026-05-07 00:50 -23.36300 150.58020 7957 ft 282 kts 334°
2026-05-07 00:50 -23.34549 150.57072 7296 ft 281 kts 334°
2026-05-07 00:50 -23.32805 150.56128 6646 ft 281 kts 334°
2026-05-07 00:50 -23.31064 150.55186 5909 ft 282 kts 334°
2026-05-07 00:51 -23.29310 150.54237 5165 ft 278 kts 334°
2026-05-07 00:51 -23.27600 150.53299 4415 ft 273 kts 333°
2026-05-07 00:51 -23.25917 150.52379 3670 ft 269 kts 334°
2026-05-07 00:51 -23.24280 150.51492 3115 ft 258 kts 334°
2026-05-07 00:52 -23.22965 150.50351 3045 ft 229 kts 297°
2026-05-07 00:52 -23.22683 150.48755 3100 ft 216 kts 254°
2026-05-07 00:52 -23.23464 150.47411 3103 ft 211 kts 215°
2026-05-07 00:52 -23.24608 150.46536 2948 ft 191 kts 211°
2026-05-07 00:53 -23.25693 150.45734 2707 ft 189 kts 212°
2026-05-07 00:53 -23.26677 150.44836 2359 ft 177 kts 221°
2026-05-07 00:53 -23.27538 150.43929 1831 ft 171 kts 207°
2026-05-07 00:53 -23.28637 150.43770 1398 ft 157 kts 163°
2026-05-07 00:54 -23.29644 150.44076 1159 ft 138 kts 163°
2026-05-07 00:54 -23.30547 150.44344 1022 ft 129 kts 163°
2026-05-07 00:54 -23.31409 150.44617 1046 ft 129 kts 160°
2026-05-07 00:54 -23.32260 150.44965 943 ft 130 kts 156°
2026-05-07 00:55 -23.33075 150.45349 792 ft 126 kts 155°
2026-05-07 00:55 -23.33882 150.45714 668 ft 127 kts 158°
2026-05-07 00:55 -23.34728 150.46065 525 ft 129 kts 156°
2026-05-07 00:55 -23.35547 150.46451 353 ft 128 kts 157°
2026-05-07 00:56 -23.36373 150.46812 172 ft 126 kts 157°
2026-05-07 00:56 -23.37166 150.47163 43 ft 114 kts 156°
2026-05-07 00:56 -23.37741 150.47418 45 ft 55 kts 156°
2026-05-07 00:56 -23.37893 150.47510 42 ft 14 kts 98°
2026-05-07 00:57 -23.37871 150.47588 41 ft 10 kts 66°
2026-05-07 00:57 -23.37840 150.47661 40 ft 10 kts 50°
2026-05-07 00:57 -23.37786 150.47679 41 ft 3 kts 340°
2026-05-07 00:57 -23.37767 150.47679 42 ft 2 kts 35°
2026-05-07 00:58 -23.37769 150.47694 42 ft 3 kts 123°
2026-05-07 00:58 -23.37780 150.47719 42 ft 3 kts 103°
2026-05-07 00:58 -23.37783 150.47733 42 ft 1 kts 104°
2026-05-07 00:58 -23.37784 150.47736 42 ft 0 kts 104°